Regional Weather Roundup
Issued by NWS

Home | Current Version | Previous Version | Graphics & Text | Print | Product List | Glossary On
Versions: 1 2 3 4 5 6 7 8 9 10 11 12 13 14 15 16 17 18 19 20 21 22 23 24 25 26 27 28 29 30 31 32 33 34 35 36 37 38 39 40 41 42 43 44 45 46 47 48 49
274
ASUS45 KCYS 121710
RWRWY

WYOMING REGIONAL WEATHER ROUNDUP
NATIONAL WEATHER SERVICE CHEYENNE WY
1000 AM MST FRI FEB 12 2016

NOTE:  "FAIR" INDICATES FEW OR NO CLOUDS BELOW 12,000 FEET
WITH NO SIGNIFICANT WEATHER AND/OR OBSTRUCTIONS TO VISIBILITY.

WYZ001-121800-
YELLOWSTONE NATIONAL PARK

CITY           SKY/WX    TMP DP  RH WIND       PRES   REMARKS
LK YELLOWSTONE   N/A     33  26  75 CALM      30.36S
W YELLOWSTONE  NOT AVBL

$$
WYZ002>013-054>058-071-098>099-121800-
NORTHERN WYOMING

CITY           SKY/WX    TMP DP  RH WIND       PRES   REMARKS
JACKSON        MOSUNNY   25  25 100 CALM      30.37S FOG
CODY           FAIR      41  23  48 CALM      30.24S
GREYBULL       PTSUNNY   40  30  67 SE3       30.25F
WORLAND        PTSUNNY   40  32  73 NW3       30.25F
SHERIDAN       CLOUDY    35  29  78 NW3       30.29F
BUFFALO        CLOUDY    37  29  72 SE7       30.28F WCI  32
GILLETTE       CLOUDY    30  27  88 SE6       30.32F WCI  24
HULETT         CLOUDY    34  27  75 CALM      30.34S
NEWCASTLE      CLOUDY    30  28  93 SE13      30.35R WCI  20

$$
WYZ014>020-022>026-101>103-121800-
CENTRAL WYOMING

CITY           SKY/WX    TMP DP  RH WIND       PRES   REMARKS
BIG PINEY      FAIR      28  22  78 E5        30.37F WCI  23
PINEDALE         N/A     32  27  80 NW3       30.37F
DUBOIS         FAIR      45  21  39 NW17G24   30.27R
LANDER         FAIR      35  24  64 CALM      30.25S
RIVERTON       FAIR      37  26  64 CALM      30.27S
CASPER         CLOUDY    37  27  67 CALM      30.29F
DOUGLAS        PTSUNNY   40  30  67 SE3       30.32F

$$
WYZ021-027>030-104>119-121800-
SOUTHERN WYOMING

CITY           SKY/WX    TMP DP  RH WIND       PRES   REMARKS
EVANSTON       FAIR      36  16  44 SE7       30.38F WCI  30
FORT BRIDGER   SUNNY     41  21  45 W5        30.40S
ROCK SPRINGS   FAIR      38  23  55 CALM      30.37F
DIXON          FAIR      28  19  67 CALM      30.44S
RAWLINS        FAIR      38  21  50 W14       30.34S WCI  30
SARATOGA       FAIR      39  23  52 CALM      30.37S
LARAMIE        CLOUDY    38  25  59 NE9       30.31S WCI  31
CHEYENNE       CLOUDY    45  26  47 CALM      30.32R
TORRINGTON     CLOUDY    39  28  64 W3        30.33S
PINE BLUFFS    CLOUDY    41  32  70 NE5       30.33S

$$




USA.gov is the U.S. government's official web portal to all federal, state and local government web resources and services.